When you browse on this site, cookies collect data to enhance your experience and personalize the content and advertising you see.
Visit our Privacy Policy to learn more. By continuing to use the site, you agree to this use of cookies and data.
  • en Suisse
  • Liste des pays
  • À 7 jours
  • Température de l'eau
  • Carte météo
  • Widgets météo
  • user-avatar
    Se connecter

    Météo par heure à Ichgl

    Ce jour, 21 Août, Mercredi

    Heure Température Précipitation Vent Pression Humidité
    00:00 +5°C° 2.2 mm 2 m/s 579 mmHg 96%
    01:00 +4°C° 2.2 mm 2 m/s 579 mmHg 96%
    02:00 +4°C° 0.7 mm 2 m/s 579 mmHg 96%
    03:00 +5°C° 0.7 mm 1 m/s 579 mmHg 95%
    04:00 +5°C° 0.7 mm 1 m/s 579 mmHg 95%
    05:00 +5°C° 0.4 mm 1 m/s 579 mmHg 94%
    06:00 +5°C° 0.4 mm 1 m/s 579 mmHg 94%
    07:00 +5°C° 0.4 mm 1 m/s 579 mmHg 93%
    08:00 +7°C° 0 mm 1 m/s 580 mmHg 89%
    09:00 +8°C° 0 mm 1 m/s 581 mmHg 85%
    10:00 +9°C° 0 mm 1 m/s 581 mmHg 82%
    11:00 +11°C° 0.3 mm 1 m/s 582 mmHg 78%
    12:00 +12°C° 0.3 mm 1 m/s 582 mmHg 74%
    13:00 +13°C° 0.3 mm 1 m/s 582 mmHg 71%
    14:00 +13°C° 0.7 mm 1 m/s 582 mmHg 71%
    15:00 +13°C° 0.7 mm 1 m/s 582 mmHg 72%
    16:00 +13°C° 0.7 mm 1 m/s 582 mmHg 73%
    17:00 +11°C° 0.5 mm 1 m/s 581 mmHg 79%
    18:00 +10°C° 0.5 mm 1 m/s 581 mmHg 86%
    19:00 +9°C° 0.5 mm 1 m/s 580 mmHg 92%
    20:00 +8°C° 0.2 mm 1 m/s 580 mmHg 92%
    21:00 +8°C° 0.2 mm 1 m/s 580 mmHg 92%
    22:00 +7°C° 0.2 mm 1 m/s 580 mmHg 92%
    23:00 +7°C° 0 mm 1 m/s 580 mmHg 91%

    Demain, 22 Août, Jeudi

    Heure Température Précipitation Vent Pression Humidité
    00:00 +7°C° 0 mm 1 m/s 580 mmHg 89%
    01:00 +7°C° 0 mm 1 m/s 580 mmHg 88%
    02:00 +7°C° 0 mm 1 m/s 579 mmHg 87%
    03:00 +7°C° 0 mm 1 m/s 579 mmHg 87%
    04:00 +7°C° 0 mm 1 m/s 579 mmHg 86%
    05:00 +8°C° 0 mm 1 m/s 580 mmHg 84%
    06:00 +9°C° 0 mm 1 m/s 580 mmHg 81%
    07:00 +10°C° 0 mm 1 m/s 581 mmHg 79%
    08:00 +11°C° 0 mm 0 m/s 582 mmHg 72%
    09:00 +12°C° 0 mm 0 m/s 583 mmHg 65%
    10:00 +14°C° 0 mm 0 m/s 583 mmHg 58%
    11:00 +15°C° 0.5 mm 1 m/s 583 mmHg 57%
    12:00 +16°C° 0.5 mm 1 m/s 583 mmHg 56%
    13:00 +16°C° 0.5 mm 2 m/s 584 mmHg 55%
    14:00 +15°C° 1.2 mm 1 m/s 583 mmHg 60%
    15:00 +15°C° 1.2 mm 1 m/s 583 mmHg 64%
    16:00 +14°C° 1.2 mm 1 m/s 582 mmHg 68%
    17:00 +13°C° 0.8 mm 1 m/s 582 mmHg 74%
    18:00 +12°C° 0.8 mm 1 m/s 581 mmHg 81%
    19:00 +11°C° 0.8 mm 1 m/s 581 mmHg 87%
    20:00 +10°C° 0.1 mm 1 m/s 581 mmHg 87%
    21:00 +8°C° 0.1 mm 0 m/s 581 mmHg 87%
    22:00 +7°C° 0.1 mm 0 m/s 580 mmHg 88%
    23:00 +7°C° 0 mm 0 m/s 580 mmHg 87%

    Après-demain, 23 Août, Vendredi

    Heure Température Précipitation Vent Pression Humidité
    00:00 +7°C° 0 mm 1 m/s 580 mmHg 87%
    01:00 +7°C° 0 mm 1 m/s 580 mmHg 87%
    02:00 +7°C° 0 mm 1 m/s 579 mmHg 86%
    03:00 +7°C° 0 mm 1 m/s 579 mmHg 86%
    04:00 +6°C° 0 mm 1 m/s 579 mmHg 85%
    05:00 +8°C° 0 mm 1 m/s 580 mmHg 83%
    06:00 +9°C° 0 mm 1 m/s 580 mmHg 81%
    07:00 +10°C° 0 mm 1 m/s 581 mmHg 79%
    08:00 +12°C° 0 mm 1 m/s 582 mmHg 71%
    09:00 +14°C° 0 mm 1 m/s 583 mmHg 64%
    10:00 +15°C° 0 mm 1 m/s 583 mmHg 56%
    11:00 +16°C° 0.5 mm 1 m/s 583 mmHg 55%
    12:00 +16°C° 0.5 mm 1 m/s 584 mmHg 54%
    13:00 +18°C° 0.5 mm 1 m/s 584 mmHg 52%
    14:00 +16°C° 1.3 mm 1 m/s 583 mmHg 57%
    15:00 +16°C° 1.3 mm 1 m/s 583 mmHg 62%
    16:00 +15°C° 1.3 mm 1 m/s 582 mmHg 67%
    17:00 +14°C° 1.1 mm 1 m/s 582 mmHg 73%
    18:00 +12°C° 1.1 mm 1 m/s 581 mmHg 79%
    19:00 +10°C° 1.1 mm 0 m/s 580 mmHg 85%
    20:00 +10°C° 0.5 mm 0 m/s 580 mmHg 86%
    21:00 +9°C° 0.5 mm 0 m/s 580 mmHg 86%
    22:00 +9°C° 0.5 mm 0 m/s 580 mmHg 86%
    23:00 +8°C° 0 mm 0 m/s 580 mmHg 86%

    24 Août, Samedi

    Heure Température Précipitation Vent Pression Humidité
    00:00 +8°C° 0 mm 1 m/s 579 mmHg 86%
    01:00 +8°C° 0 mm 1 m/s 579 mmHg 86%
    02:00 +7°C° 0 mm 1 m/s 578 mmHg 85%
    03:00 +7°C° 0 mm 1 m/s 578 mmHg 85%
    04:00 +7°C° 0 mm 1 m/s 578 mmHg 85%
    05:00 +8°C° 0 mm 1 m/s 579 mmHg 83%
    06:00 +9°C° 0 mm 1 m/s 579 mmHg 80%
    07:00 +10°C° 0 mm 1 m/s 580 mmHg 78%
    08:00 +12°C° 0 mm 1 m/s 581 mmHg 70%
    09:00 +14°C° 0 mm 1 m/s 582 mmHg 62%
    10:00 +16°C° 0 mm 1 m/s 582 mmHg 54%
    11:00 +16°C° 0.3 mm 1 m/s 583 mmHg 52%
    12:00 +18°C° 0.3 mm 1 m/s 583 mmHg 51%
    13:00 +19°C° 0.3 mm 1 m/s 583 mmHg 49%
    14:00 +18°C° 1.2 mm 1 m/s 582 mmHg 55%
    15:00 +16°C° 1.2 mm 1 m/s 582 mmHg 62%
    16:00 +15°C° 1.2 mm 1 m/s 581 mmHg 68%
    17:00 +14°C° 1 mm 1 m/s 580 mmHg 74%
    18:00 +13°C° 1 mm 1 m/s 580 mmHg 80%
    19:00 +10°C° 1 mm 0 m/s 579 mmHg 85%
    20:00 +10°C° 0.4 mm 0 m/s 579 mmHg 86%
    21:00 +9°C° 0.4 mm 0 m/s 579 mmHg 86%
    22:00 +9°C° 0.4 mm 0 m/s 579 mmHg 86%
    23:00 +8°C° 0 mm 0 m/s 579 mmHg 86%

    25 Août, Dimanche

    Heure Température Précipitation Vent Pression Humidité
    00:00 +9°C° 0 mm 1 m/s 578 mmHg 86%
    01:00 +8°C° 0 mm 1 m/s 578 mmHg 87%
    02:00 +8°C° 0 mm 1 m/s 578 mmHg 87%
    03:00 +7°C° 0 mm 1 m/s 577 mmHg 87%
    04:00 +6°C° 0 mm 0 m/s 577 mmHg 87%
    05:00 +7°C° 0 mm 0 m/s 578 mmHg 84%
    06:00 +9°C° 0 mm 0 m/s 579 mmHg 81%
    07:00 +10°C° 0 mm 0 m/s 580 mmHg 78%
    08:00 +12°C° 0 mm 0 m/s 580 mmHg 73%
    09:00 +13°C° 0 mm 0 m/s 581 mmHg 67%
    10:00 +16°C° 0 mm 1 m/s 582 mmHg 62%
    11:00 +16°C° 0.9 mm 1 m/s 582 mmHg 62%
    12:00 +16°C° 0.9 mm 1 m/s 582 mmHg 61%
    13:00 +17°C° 0.9 mm 2 m/s 582 mmHg 61%
    14:00 +16°C° 1.1 mm 2 m/s 581 mmHg 63%
    15:00 +16°C° 1.1 mm 2 m/s 581 mmHg 65%
    16:00 +16°C° 1.1 mm 2 m/s 581 mmHg 68%
    17:00 +14°C° 0.5 mm 2 m/s 580 mmHg 74%
    18:00 +12°C° 0.5 mm 1 m/s 580 mmHg 80%
    19:00 +11°C° 0.5 mm 1 m/s 579 mmHg 87%
    20:00 +10°C° 0 mm 1 m/s 579 mmHg 88%
    21:00 +9°C° 0 mm 1 m/s 579 mmHg 89%
    22:00 +7°C° 0 mm 0 m/s 579 mmHg 90%
    23:00 +7°C° 0 mm 0 m/s 578 mmHg 90%

    26 Août, Lundi

    Heure Température Précipitation Vent Pression Humidité
    00:00 +6°C° 0 mm 0 m/s 578 mmHg 90%
    01:00 +6°C° 0 mm 0 m/s 578 mmHg 90%
    02:00 +5°C° 0 mm 0 m/s 578 mmHg 90%
    03:00 +5°C° 0 mm 0 m/s 577 mmHg 89%
    04:00 +4°C° 0 mm 0 m/s 577 mmHg 89%
    05:00 +6°C° 0 mm 0 m/s 578 mmHg 86%
    06:00 +8°C° 0 mm 0 m/s 579 mmHg 83%
    07:00 +9°C° 0 mm 0 m/s 580 mmHg 80%
    08:00 +12°C° 0 mm 1 m/s 581 mmHg 68%
    09:00 +14°C° 0 mm 1 m/s 582 mmHg 56%
    10:00 +15°C° 0 mm 1 m/s 583 mmHg 44%
    11:00 +16°C° 0 mm 1 m/s 583 mmHg 40%
    12:00 +18°C° 0 mm 1 m/s 584 mmHg 35%
    13:00 +19°C° 0 mm 1 m/s 584 mmHg 31%
    14:00 +18°C° 0 mm 2 m/s 584 mmHg 32%
    15:00 +18°C° 0 mm 2 m/s 584 mmHg 34%
    16:00 +18°C° 0 mm 2 m/s 583 mmHg 35%
    17:00 +15°C° 0 mm 2 m/s 582 mmHg 48%
    18:00 +13°C° 0 mm 1 m/s 581 mmHg 60%
    19:00 +11°C° 0 mm 1 m/s 580 mmHg 73%
    20:00 +10°C° 0 mm 1 m/s 580 mmHg 77%
    21:00 +9°C° 0 mm 1 m/s 580 mmHg 82%
    22:00 +7°C° 0 mm 0 m/s 579 mmHg 86%
    23:00 +7°C° 0 mm 0 m/s 579 mmHg 86%
    Voir plus